Location: *
(46.3500°N, 10.9000°E)
Time: 23:01:45
(UTC+00:00)

A-11 Canister half - Pass Details

Date: 22 April 2021
Orbit: 1526 x 1682 km, 47.3° (Epoch: 13 May)

Event Time Altitude Azimuth Distance (km) Brightness Sun altitude
Rises 16:41:58 0° 269° (W) 4,897 13.6 14.6°
Reaches altitude 10° 16:45:06 10° 270° (W) 3,923 14.3 14.1°
Maximum altitude 16:55:17 85° 0° (N) 1,692 9.5 12.3°
Drops below altitude 10° 17:05:30 10° 90° (E) 3,935 10.6 10.6°
Sets 17:08:38 0° 91° (E) 4,912 11.0 10.0°
